Theta_e
333 331 331 329 327 326 324 323 325 328 330 328 325 324 325 324 323 320 318 319 318 316 316 314 311 306 303 301 301 302 302 303 303 303 304 305 305 306 306 306 306 306 306 305 305 306 305 305 305 308 309 312 315 312 311 316 314 312 315 315 314 315 315 314 312 311 311 311 312 313 313 313 314 312 312 313 313 312 311 312 312 313 313 313 313
330 331 333 330 327 329 329 326 322 323 324 324 324 325 325 324 322 319 321 322 319 317 317 316 314 311 306 303 301 301 302 302 303 303 303 303 304 305 306 306 306 305 305 305 305 305 305 305 305 307 310 313 315 314 312 315 316 314 315 316 317 316 316 315 313 312 311 311 311 311 312 312 313 313 313 313 314 314 314 313 313 315 316 316 315
330 330 331 328 326 327 327 326 321 319 322 325 326 325 325 325 322 319 320 322 319 317 318 317 316 314 310 306 303 301 301 302 302 302 302 302 303 304 305 306 305 305 305 305 305 305 305 305 305 305 307 310 312 312 312 315 318 317 315 315 317 317 316 315 314 313 312 312 311 311 311 311 312 313 313 314 314 314 314 314 313 314 316 317 316
330 329 328 326 325 324 322 322 322 322 324 325 325 326 327 325 323 322 322 321 319 317 317 318 317 316 313 310 307 303 301 301 301 302 302 302 302 303 304 304 305 305 305 305 304 305 304 304 305 304 304 305 306 306 307 310 314 317 316 316 317 317 317 316 315 314 314 313 313 312 310 311 312 312 313 314 313 313 313 313 313 313 315 316 316
329 328 326 325 324 322 321 323 325 325 325 325 325 328 327 325 325 326 324 321 319 318 317 317 318 317 315 312 309 306 303 301 301 301 301 302 302 302 302 303 304 304 304 304 304 304 304 304 304 304 304 303 303 303 303 304 309 314 315 316 317 318 317 316 316 315 315 315 314 314 311 309 310 311 312 313 312 312 312 312 312 312 313 315 315
326 326 325 324 323 323 323 324 325 325 326 326 325 325 325 324 324 324 322 321 320 320 319 317 317 317 316 314 311 308 306 303 301 300 300 301 301 302 302 302 302 303 304 304 304 304 304 304 304 304 304 303 303 303 303 303 305 308 310 310 313 316 317 317 317 316 316 315 315 314 312 309 308 309 310 310 311 311 311 311 311 311 312 313 314
322 323 322 322 323 323 322 323 323 323 324 324 324 325 324 323 323 322 321 321 320 320 320 318 317 317 317 316 314 311 308 306 304 302 301 300 300 301 301 302 302 302 303 303 303 303 303 303 303 303 303 303 303 302 303 303 302 304 305 305 307 312 316 317 317 316 316 316 315 315 313 310 308 307 307 308 309 310 310 310 310 310 311 312 313
323 323 322 323 323 323 323 324 323 322 322 322 323 325 323 322 322 322 322 322 321 320 320 319 318 317 317 316 316 315 313 310 307 304 303 301 300 300 300 301 302 302 302 302 302 302 303 303 303 303 303 303 303 302 302 302 302 302 302 303 303 307 314 317 316 316 317 317 316 314 312 310 309 308 307 307 308 309 309 309 309 310 311 311 312
325 324 324 324 324 324 324 324 323 323 324 322 322 323 323 323 322 322 324 323 321 321 320 319 318 318 317 317 316 316 315 314 312 309 307 305 303 301 300 300 300 301 301 301 302 302 302 302 302 302 303 302 302 302 302 302 302 302 302 302 302 304 310 314 314 314 315 315 314 313 312 311 310 310 308 307 308 309 308 308 309 309 310 311 311
323 323 323 323 324 324 324 324 323 324 325 324 321 322 324 323 323 322 323 322 321 321 320 319 319 318 318 317 317 316 316 315 314 313 311 309 308 306 304 302 300 300 300 301 301 301 301 301 302 302 301 302 302 302 302 302 302 302 302 302 302 302 304 308 311 312 312 312 313 313 313 312 312 311 309 307 307 309 309 309 308 308 309 309 310
320 320 321 322 323 323 323 322 322 322 323 323 321 322 323 321 321 321 321 321 321 320 319 319 319 318 317 317 316 316 316 315 315 314 314 313 312 311 309 307 304 302 301 300 300 300 301 301 301 301 301 301 301 301 301 301 302 301 301 301 301 301 301 303 310 313 312 311 313 313 313 312 312 310 307 306 308 309 310 309 309 309 308 308 309
318 318 318 320 321 321 321 320 320 320 321 322 321 321 322 321 320 320 320 321 320 320 319 319 318 317 317 316 315 315 315 314 314 313 313 313 313 313 312 311 310 308 305 302 300 299 299 300 300 300 300 300 300 300 300 300 301 301 301 301 301 301 301 301 304 311 313 313 312 312 311 310 309 308 307 308 309 309 310 310 310 309 309 309 309
315 315 315 316 317 318 318 318 317 317 318 318 319 319 319 319 319 319 319 319 319 318 318 317 316 316 315 314 314 314 313 313 312 312 311 311 312 312 312 312 312 311 309 306 303 301 299 299 299 299 299 300 300 300 300 300 300 300 300 301 300 300 301 300 300 304 311 313 312 311 311 310 310 310 311 311 310 309 309 310 310 310 310 309 309
310 309 310 311 313 314 315 314 313 313 315 316 316 316 316 316 317 317 317 317 316 316 315 315 314 313 313 312 312 311 310 310 309 309 310 310 310 310 310 310 311 310 309 307 305 302 300 299 298 298 298 298 298 299 299 299 299 300 300 300 300 300 300 300 300 300 303 309 313 313 312 312 312 312 312 312 311 310 310 309 310 310 310 309 309
306 306 306 307 308 308 308 308 308 309 310 311 312 312 313 313 314 314 314 314 313 313 312 312 311 310 310 309 309 308 308 308 308 308 308 308 308 308 309 309 309 308 308 306 305 303 301 300 299 298 298 298 298 298 298 298 299 299 299 299 299 300 300 299 300 300 299 302 308 312 312 312 312 313 312 312 311 311 310 309 309 310 309 309 309
306 306 306 306 305 305 305 305 305 305 305 305 306 306 307 308 308 308 309 309 309 309 308 308 308 308 307 307 307 306 306 305 306 306 306 306 306 306 307 307 307 307 307 307 306 306 305 303 302 301 300 299 298 298 297 297 298 298 299 299 299 299 299 299 299 299 299 299 301 306 311 312 313 313 313 312 311 310 309 309 308 309 309 309 309
305 305 306 305 305 305 305 305 304 304 304 304 303 303 303 303 303 303 304 304 305 305 306 306 306 306 305 305 305 304 303 303 304 305 305 305 305 305 305 305 305 305 306 306 306 307 307 307 306 305 304 303 301 300 299 298 297 297 298 298 298 299 299 299 299 299 299 299 298 300 304 310 312 313 313 312 311 310 310 310 308 308 308 308 308
304 304 304 304 304 304 304 304 303 303 303 303 303 302 302 302 302 301 301 301 301 302 303 303 303 303 303 303 303 303 302 303 303 304 304 304 304 304 304 304 304 304 304 304 304 305 305 306 306 307 307 306 305 304 302 301 299 298 298 297 298 298 298 298 298 298 298 298 298 298 299 302 307 312 313 312 311 310 310 310 308 308 308 307 307
302 302 302 302 302 302 302 302 301 301 301 301 301 301 300 300 300 300 300 300 300 300 300 300 300 300 300 301 302 302 302 302 301 301 302 303 303 302 302 301 301 301 302 302 302 303 303 303 304 305 306 306 306 306 306 304 303 301 299 298 297 297 297 297 297 298 298 298 298 298 298 298 300 306 312 314 312 311 311 311 309 308 308 307 306
300 300 300 300 299 299 299 299 299 299 298 298 298 297 297 297 296 296 297 297 297 297 297 296 296 296 296 296 297 298 298 298 299 299 298 299 300 300 300 299 298 299 299 299 300 300 301 302 302 303 303 304 305 306 306 306 306 305 303 301 299 298 297 297 297 297 297 298 298 298 298 298 297 300 306 312 314 312 311 312 310 309 308 307 306
298 298 298 297 297 297 296 296 296 296 295 295 294 294 293 293 293 293 292 292 293 293 292 292 292 291 291 291 291 292 292 293 293 293 293 292 292 293 296 298 298 297 296 295 296 296 297 299 300 301 302 302 303 303 304 305 306 307 306 305 303 301 299 297 297 297 297 297 297 298 297 298 298 297 299 305 311 313 312 311 311 310 309 308 306
296 295 295 295 295 294 294 294 294 293 293 292 292 292 291 291 291 290 290 290 290 290 289 289 289 289 289 289 289 289 289 289 288 288 288 288 288 288 290 292 293 295 294 293 293 293 294 295 296 298 299 300 301 301 302 303 304 305 306 306 306 304 302 300 298 297 297 297 297 297 298 297 298 297 297 297 302 310 313 312 311 310 309 308 306
294 293 293 293 293 293 293 293 292 292 292 292 291 291 291 290 290 289 289 289 289 289 289 288 288 288 288 288 288 288 288 287 287 287 287 287 287 287 288 288 289 291 292 292 292 292 292 293 293 294 295 297 298 299 300 301 301 302 303 304 305 305 305 303 301 298 297 297 297 297 298 298 297 297 298 296 296 303 310 312 312 311 309 308 307
293 292 292 292 292 292 292 291 291 291 291 291 290 290 290 290 289 289 289 289 288 288 288 288 288 288 288 288 288 287 287 287 287 287 287 287 286 286 287 287 288 289 290 291 291 292 292 292 292 292 292 293 294 295 297 298 299 300 301 302 303 303 304 304 303 301 298 297 296 297 297 298 298 297 297 297 295 297 304 310 312 312 311 309 308
292 292 292 291 291 291 291 291 291 291 290 290 290 289 289 289 289 289 289 289 288 288 288 288 288 288 288 288 288 288 287 287 287 287 287 287 286 286 286 286 287 288 289 290 290 291 292 292 291 291 291 291 291 292 293 294 295 296 298 299 300 301 302 302 302 302 300 298 296 296 297 297 297 297 297 297 296 295 299 307 310 311 311 310 309
292 291 291 290 290 290 290 290 289 289 289 289 289 289 289 289 289 288 288 288 288 288 288 288 288 288 288 288 288 288 288 288 287 287 287 287 287 286 286 286 287 287 288 289 289 290 290 291 290 291 291 291 291 291 291 291 291 292 293 295 297 299 300 301 301 301 300 298 297 296 296 297 297 297 297 297 297 295 295 303 309 309 310 311 310
291 291 290 290 289 289 289 288 288 288 288 288 288 288 288 288 288 288 288 288 288 288 288 288 288 288 288 288 288 288 288 288 288 287 287 287 287 286 286 286 286 287 288 288 289 289 289 289 290 290 290 290 290 290 290 290 290 290 291 291 293 295 297 298 300 300 300 298 297 296 296 296 296 297 297 297 297 296 294 297 305 308 309 309 310
291 290 289 289 289 288 288 288 288 288 288 288 288 288 288 287 287 287 287 287 287 287 287 287 288 288 288 288 288 287 288 288 288 288 287 287 287 287 286 285 285 285 286 287 288 289 289 289 289 289 289 289 289 289 289 290 290 290 290 290 290 291 292 294 296 299 300 299 298 297 296 296 296 296 297 297 297 297 295 294 298 305 308 308 308
290 289 289 289 288 288 288 288 288 288 288 288 288 288 288 288 288 288 288 288 288 288 288 287 287 287 287 287 287 287 287 287 287 287 288 287 287 287 286 286 285 284 284 285 286 288 289 289 289 289 289 289 289 289 289 289 289 289 289 290 290 290 290 291 292 295 298 299 299 298 297 295 295 296 296 296 297 297 296 295 294 298 305 307 307
289 289 288 288 288 288 288 288 288 288 288 288 288 288 288 288 288 288 288 288 288 287 287 287 287 287 287 287 287 287 287 287 287 287 287 287 287 287 286 286 286 285 284 284 285 286 287 288 288 288 289 289 288 289 289 289 289 289 289 289 289 289 290 290 290 291 293 296 298 299 299 297 296 295 295 296 296 296 296 296 294 294 298 303 306
288 288 288 287 287 287 287 287 287 287 287 287 287 287 287 287 287 287 287 287 287 287 287 287 287 287 287 287 287 287 287 287 287 287 287 287 287 287 287 286 286 286 285 284 284 285 286 287 288 288 288 288 289 289 289 288 289 289 289 289 289 289 289 289 290 290 290 291 294 297 299 299 298 296 295 295 296 296 296 296 295 293 293 297 302
287 287 287 287 287 287 286 286 286 286 286 286 286 286 286 286 286 286 286 286 286 286 286 287 287 287 287 287 287 287 287 287 287 287 287 287 287 287 286 286 286 286 285 284 283 285 286 286 287 287 288 288 288 288 289 289 288 288 288 288 289 288 288 289 289 289 290 290 290 292 295 298 299 298 297 295 295 296 296 296 295 294 293 292 295
287 287 287 287 287 287 287 286 286 286 286 286 286 286 286 286 286 286 286 286 286 286 286 286 286 286 286 286 287 287 287 287 287 287 287 287 287 287 286 286 286 286 285 284 284 284 286 285 286 287 287 287 288 288 288 288 288 288 288 288 288 288 288 289 289 289 289 289 289 289 291 293 297 299 299 297 296 295 295 296 296 295 294 292 292
288 288 288 287 287 287 287 287 287 286 286 286 286 286 286 286 286 286 286 286 286 286 286 286 286 286 286 286 286 286 286 286 286 286 286 286 286 286 286 286 286 286 285 285 284 284 285 285 285 286 286 286 287 288 287 288 288 288 288 288 288 288 288 288 288 288 288 288 289 289 289 290 292 295 298 299 298 296 295 295 295 295 295 293 292
288 288 288 288 288 288 288 288 287 287 286 286 286 285 285 285 285 285 285 285 285 285 285 286 286 286 286 286 286 286 286 286 286 286 286 286 286 286 286 285 285 285 285 285 284 284 284 285 285 285 285 285 285 287 287 287 288 288 288 288 288 288 288 288 288 288 288 288 288 288 288 289 289 291 294 298 299 298 297 295 295 295 295 295 293
288 288 288 288 288 288 288 288 287 287 287 286 286 285 285 285 285 285 285 285 285 285 285 285 285 285 285 285 285 285 285 285 285 285 285 285 285 285 285 285 285 285 285 284 284 283 283 284 285 285 285 284 284 286 286 286 287 287 287 288 288 288 287 287 287 288 288 288 288 288 288 288 289 289 290 294 297 299 298 297 295 295 295 295 295
288 288 288 288 288 288 288 288 288 287 287 286 286 285 285 285 285 285 285 285 285 285 285 285 285 284 284 284 285 285 285 285 285 285 285 285 284 284 284 284 284 284 284 284 283 283 283 283 284 285 284 284 283 284 285 285 285 286 287 287 287 287 287 287 287 287 287 288 288 288 287 287 288 288 289 290 293 297 299 299 297 296 295 295 295
288 288 288 288 288 288 288 288 288 288 287 286 286 285 285 285 284 284 284 284 284 284 284 284 284 284 284 284 284 284 284 284 284 284 284 284 284 284 284 284 283 283 283 283 283 282 282 282 283 284 284 283 282 283 283 283 283 284 286 286 286 287 287 287 287 287 286 287 287 287 287 287 287 287 288 288 289 292 296 298 298 297 296 295 295
288 288 288 288 287 287 287 287 287 287 287 286 286 285 285 284 284 284 284 284 284 284 284 284 284 284 284 284 284 284 284 284 284 284 283 283 283 283 283 282 282 282 281 282 281 280 279 280 281 282 282 282 281 281 281 281 281 282 283 284 285 286 286 286 286 286 286 286 286 287 287 287 286 286 287 288 288 289 292 296 298 298 297 296 295
288 288 288 288 287 287 287 287 287 287 287 286 285 285 284 284 284 284 284 284 284 284 284 284 283 283 284 284 284 284 284 284 283 283 283 282 282 282 282 281 280 280 279 279 278 277 277 277 279 280 280 280 279 279 280 280 280 281 282 282 283 284 285 285 284 285 285 285 285 286 286 286 287 286 286 287 287 288 289 291 294 297 298 297 296
288 288 288 288 288 287 287 287 287 287 286 286 285 284 284 284 283 283 283 283 283 283 283 283 283 283 283 284 284 284 283 283 283 282 282 281 280 280 280 280 279 278 278 277 277 276 275 276 277 277 278 278 279 279 279 280 280 281 281 282 282 282 283 284 284 284 284 284 284 285 285 285 286 286 286 286 287 287 287 288 290 293 296 297 296
288 288 288 288 287 287 287 287 286 286 286 285 284 283 283 283 283 283 283 283 283 283 283 283 283 283 283 283 283 283 283 282 282 281 281 281 280 279 279 278 278 277 277 276 275 274 274 274 275 275 276 277 277 278 278 279 280 280 281 282 282 282 283 283 284 285 284 284 284 284 285 285 285 285 285 285 286 286 287 287 288 289 293 296 296
288 288 288 287 287 287 287 286 286 286 285 284 283 283 283 282 282 282 283 283 283 283 283 283 283 283 283 283 283 283 282 282 281 281 280 280 279 279 278 277 277 276 275 274 274 273 273 274 274 274 275 275 275 276 276 276 277 278 279 280 281 282 282 282 283 284 284 284 284 284 284 284 285 285 285 285 285 285 285 286 287 287 290 293 295
288 288 287 287 287 287 287 286 286 286 285 284 283 282 282 282 282 282 282 282 282 282 282 283 283 283 283 283 282 282 282 281 280 280 279 279 278 278 277 277 276 276 275 273 273 273 273 273 274 274 274 274 274 275 275 275 275 276 276 277 277 279 280 281 281 282 283 283 284 284 284 284 284 284 285 285 285 285 285 285 286 286 287 289 292
288 287 287 287 287 287 286 286 286 285 284 283 282 282 282 282 281 281 282 282 282 282 282 282 282 282 282 282 282 281 281 280 279 279 278 278 278 277 277 276 276 275 274 273 272 272 273 273 273 273 273 274 274 274 274 275 275 275 275 276 276 277 278 279 279 280 281 281 282 283 283 284 284 284 284 285 285 285 285 285 285 286 286 286 288
287 287 287 287 287 286 286 285 285 285 283 282 282 282 281 281 281 281 281 282 282 282 282 282 282 282 281 281 281 280 280 279 279 278 277 277 277 276 276 275 275 274 273 272 272 272 273 273 272 273 273 273 274 274 274 275 275 276 276 277 277 277 277 278 278 279 279 280 280 281 281 282 283 284 284 284 284 284 284 285 285 285 285 286 286
287 287 287 287 287 286 286 285 285 284 283 282 281 281 281 281 281 281 281 281 282 282 282 282 281 281 281 280 280 279 279 278 278 277 276 276 276 275 274 273 273 272 272 272 273 273 274 273 273 273 274 274 274 275 275 276 276 276 277 277 277 277 277 278 278 278 279 279 280 281 281 281 281 282 283 283 283 283 283 284 285 285 285 285 286
287 287 287 287 286 286 285 285 284 283 282 281 281 281 281 281 281 281 281 281 281 281 281 281 281 280 280 279 279 278 278 278 277 276 276 275 274 273 273 272 272 272 272 273 274 274 274 274 274 274 275 275 275 276 276 276 277 277 277 277 276 276 277 277 278 278 278 279 280 281 282 282 282 283 283 283 284 284 284 284 284 284 285 285 285
287 287 286 286 286 285 285 284 284 282 282 281 281 281 281 281 281 281 281 281 281 281 281 280 280 279 279 278 278 277 278 278 277 276 275 274 273 273 273 273 273 273 273 274 275 275 275 275 275 276 276 276 276 276 276 276 277 277 277 276 276 276 276 276 276 277 277 277 278 279 281 282 282 283 284 284 284 284 284 284 284 284 285 285 285
287 286 286 286 286 285 285 284 283 282 281 281 281 281 281 280 280 280 280 281 281 280 280 280 279 279 278 278 277 277 277 277 277 275 274 273 273 274 274 274 274 274 275 275 275 275 275 276 276 276 276 276 276 276 276 276 276 276 276 276 276 276 276 276 276 276 275 276 276 277 278 280 281 282 283 284 284 284 284 284 285 285 285 285 285
286 286 286 286 285 285 284 283 281 281 281 281 280 280 280 280 280 280 280 280 280 280 279 279 278 278 278 278 277 277 276 276 276 275 274 274 274 274 274 275 275 275 275 276 276 276 276 276 276 276 276 276 276 276 275 275 275 275 275 275 275 275 275 275 275 275 275 275 276 276 277 278 280 281 282 283 284 284 284 285 285 285 285 285 285
Wind_Speed
17 18 18 14 9 11 14 16 17 19 19 17 16 16 15 15 17 17 16 14 11 10 8 9 10 11 12 14 14 13 12 12 12 11 10 9 8 7 7 6 5 5 5 5 6 6 7 8 9 10 9 8 7 9 8 6 7 7 5 6 7 11 13 12 13 12 10 10 8 9 9 8 7 8 9 9 9 9 10 11 11 10 11 12 14
15 17 20 16 11 13 14 15 17 19 18 16 17 17 14 14 16 17 15 14 15 13 9 8 10 11 12 14 15 15 14 14 13 13 12 11 10 10 9 9 8 7 6 6 6 7 7 7 8 8 8 8 8 8 8 6 6 6 5 6 8 10 10 14 15 13 13 13 11 12 12 11 10 9 8 8 8 8 9 12 12 10 9 10 11
13 14 14 13 12 14 14 14 15 18 17 13 13 14 14 12 13 15 16 17 18 14 8 8 10 11 13 13 15 16 17 16 16 15 14 13 13 12 12 11 10 9 8 8 7 7 8 8 8 8 8 8 8 8 8 8 7 7 6 6 8 8 8 15 16 15 16 15 14 15 13 12 11 10 8 7 9 8 8 11 13 13 12 10 10
10 11 10 9 9 10 9 8 9 12 13 12 11 12 13 11 11 13 15 16 16 13 9 8 10 11 12 14 15 16 17 18 18 17 16 16 15 14 14 14 13 12 10 10 9 8 8 9 9 8 8 8 8 8 8 9 8 8 8 7 8 9 12 17 17 17 19 17 17 17 14 12 9 9 8 8 11 11 11 13 13 14 15 13 11
8 8 8 7 7 8 8 8 7 8 9 10 10 11 13 12 11 11 11 12 13 12 11 9 10 11 12 13 14 15 17 18 19 19 19 18 17 16 16 16 15 14 13 12 11 10 10 10 11 10 10 9 8 8 8 9 10 9 9 9 9 11 15 19 19 18 20 20 19 18 16 14 11 9 8 8 10 11 13 15 14 13 15 16 14
9 8 8 8 7 7 8 10 10 9 8 9 9 10 12 11 10 9 8 10 11 11 13 14 13 12 12 12 13 14 15 17 19 20 20 20 19 19 19 18 17 16 15 14 13 12 12 12 12 12 12 11 9 9 9 9 11 11 10 10 9 10 14 18 19 20 21 21 20 20 18 15 13 11 10 11 11 11 13 15 16 14 13 15 17
8 8 7 7 7 7 6 8 9 9 9 8 8 10 12 11 10 9 9 10 10 11 13 14 15 15 15 15 14 14 15 16 17 19 21 21 21 21 21 20 19 18 18 17 15 14 14 14 14 14 14 13 12 11 11 11 11 12 12 11 9 9 10 14 18 20 22 21 20 23 21 16 16 15 15 15 15 14 14 13 14 15 12 11 14
5 6 6 6 8 8 8 7 7 7 10 10 10 10 11 11 11 10 11 11 11 11 12 13 14 16 16 17 18 17 17 17 17 18 19 21 22 23 23 22 21 21 20 19 18 16 16 16 16 16 16 16 15 14 13 13 13 13 13 13 11 10 9 12 17 18 20 20 21 24 22 18 18 19 19 18 16 15 14 14 13 13 11 9 11
6 5 5 6 5 7 9 8 7 10 12 11 10 10 11 12 12 13 13 12 11 10 11 12 13 14 15 17 20 21 20 20 20 19 19 20 21 22 23 24 23 23 22 21 20 19 18 18 18 18 18 18 18 17 17 16 15 15 15 14 13 12 11 13 17 18 20 23 24 23 20 21 22 23 23 20 19 19 19 19 14 12 11 11 11
8 6 5 5 4 3 6 8 9 12 13 11 10 11 13 14 13 13 13 12 12 10 10 12 15 17 16 17 19 21 23 23 22 21 21 20 20 21 21 23 24 24 25 24 23 22 21 20 20 20 20 20 19 19 19 18 18 17 17 16 15 14 15 15 16 18 21 23 23 21 21 25 25 25 26 23 22 22 24 24 19 14 13 13 12
7 7 8 7 7 6 6 7 7 7 9 11 11 12 14 15 14 13 13 13 13 13 14 17 19 19 18 19 20 21 23 24 24 23 22 21 20 20 20 21 22 23 24 25 26 25 24 23 23 23 22 21 21 21 21 20 20 19 19 19 18 16 17 16 15 16 20 21 21 22 25 27 27 27 26 24 23 24 25 26 22 15 13 13 12
6 8 9 9 10 10 10 10 10 8 7 8 9 10 11 13 13 12 13 14 15 16 17 19 20 20 21 21 21 22 23 23 23 22 22 21 21 20 20 19 19 20 21 23 24 25 26 26 25 25 25 23 23 22 22 22 21 21 21 21 21 19 18 18 16 15 19 22 21 22 25 26 25 24 23 22 24 25 23 21 17 14 12 12 12
7 8 8 9 10 11 12 13 14 13 11 10 10 11 11 10 10 11 12 13 14 15 17 18 21 23 23 22 21 21 21 21 21 21 21 21 20 18 17 17 17 18 18 18 19 21 23 25 26 26 26 26 25 24 24 23 23 22 22 22 22 22 21 20 19 17 18 22 23 23 22 22 22 21 21 22 24 24 18 15 15 14 13 13 12
4 5 5 6 7 9 11 13 13 13 13 13 14 15 15 15 14 14 14 15 15 17 19 20 21 22 24 25 24 22 20 20 18 17 17 17 17 17 16 16 16 16 16 15 15 16 18 20 22 23 25 26 26 26 26 25 25 24 24 24 23 23 23 22 22 21 19 19 21 23 23 22 22 22 22 21 21 19 15 14 14 14 13 13 13
9 9 8 7 7 7 8 8 9 10 11 12 13 14 15 15 14 15 16 16 16 17 18 20 20 20 20 22 24 24 21 17 14 14 15 16 15 14 15 15 15 16 15 15 15 14 15 16 18 19 20 22 23 24 26 26 26 26 26 26 25 25 24 24 24 24 23 21 20 22 23 24 23 22 21 20 17 15 15 15 14 13 13 13 13
9 9 8 8 8 8 8 9 9 9 9 9 10 10 10 11 11 12 13 13 13 14 15 16 17 17 17 17 19 20 17 18 24 23 17 13 12 13 14 15 16 17 18 18 18 17 17 18 18 19 19 20 20 21 23 24 25 26 27 27 27 27 26 26 25 25 26 24 23 22 22 23 24 22 21 19 17 16 15 17 16 14 14 14 15
8 8 8 8 8 8 8 9 9 10 10 10 10 10 10 10 10 11 11 11 11 11 12 12 14 15 15 14 12 12 15 24 30 27 20 17 17 17 16 17 18 19 20 21 21 22 22 23 23 22 22 22 22 22 21 22 23 24 25 26 27 28 28 28 27 26 26 26 26 25 23 23 24 24 22 19 18 18 20 24 21 17 15 15 16
9 9 9 9 9 9 9 9 10 10 10 11 11 10 11 11 12 12 12 12 11 10 10 10 11 12 12 12 10 11 18 24 26 26 28 27 24 22 22 22 23 23 23 23 23 23 24 25 26 26 26 26 25 25 24 23 23 23 24 24 25 26 28 28 28 28 27 27 27 27 26 25 24 24 24 21 19 20 24 29 22 17 16 17 17
10 10 10 10 10 10 10 11 11 11 12 11 12 12 13 13 13 13 13 13 13 12 12 11 11 10 10 9 9 11 15 19 21 24 29 30 29 29 29 29 29 28 26 24 24 24 24 25 26 27 28 28 29 28 28 27 26 25 24 24 24 24 25 26 27 29 29 29 28 28 28 27 26 25 25 25 22 22 27 31 22 16 16 17 18
10 10 10 10 10 10 11 11 11 12 12 12 13 14 14 14 14 14 14 14 14 14 15 15 14 14 13 11 10 10 11 12 15 17 21 27 31 31 31 30 30 29 28 27 26 25 25 25 25 27 28 28 29 30 30 30 29 29 27 26 26 26 26 25 25 26 28 30 30 29 29 28 28 28 27 27 24 24 28 30 24 20 18 18 18
9 9 9 10 10 11 11 11 12 12 13 13 13 13 13 13 14 15 15 15 15 15 15 16 17 17 16 16 15 14 13 13 14 15 17 21 26 30 33 33 32 30 30 31 31 29 29 27 26 26 26 26 28 29 30 31 31 31 30 29 28 28 28 27 26 26 26 27 29 30 30 30 29 29 30 30 28 27 27 27 26 25 24 23 20
8 9 9 9 10 10 11 11 12 13 13 13 13 14 14 15 15 16 15 16 16 16 16 17 18 18 18 19 19 19 18 18 18 19 20 21 24 29 32 35 37 36 32 33 34 33 32 30 28 27 25 25 25 26 27 28 30 31 31 31 30 30 29 29 28 28 26 26 26 28 30 31 30 30 30 32 33 32 28 26 26 23 23 24 21
8 8 9 9 9 10 10 11 12 12 12 13 13 14 15 15 15 15 15 16 16 16 16 17 17 18 19 20 21 22 22 21 21 21 22 22 24 28 30 33 37 38 35 35 35 35 34 33 31 29 27 26 25 25 25 25 26 27 28 29 30 31 30 30 29 29 28 27 26 26 28 30 31 31 30 32 35 36 32 28 26 24 22 21 21
7 8 8 8 9 9 10 10 10 11 11 12 13 13 14 14 14 15 15 15 16 16 16 16 17 18 19 20 21 22 22 22 23 23 23 23 24 28 31 32 36 40 39 38 38 37 36 35 34 33 32 30 28 26 25 24 23 23 25 26 28 30 30 30 30 29 29 29 28 27 26 27 30 31 31 31 34 37 37 32 29 27 26 23 22
6 7 7 7 8 8 8 8 9 10 10 11 11 12 12 13 13 14 15 15 16 16 17 17 18 18 19 19 20 20 21 22 23 23 24 25 26 29 31 32 35 40 41 41 41 41 39 37 36 37 36 34 32 30 28 27 26 24 24 25 25 27 29 29 29 29 29 29 30 29 27 27 28 30 32 32 33 36 39 38 34 30 29 29 26
7 8 8 8 8 8 8 8 8 9 9 9 10 10 11 12 12 13 13 14 15 16 16 17 18 19 19 19 20 21 22 23 24 24 25 26 27 29 33 35 37 40 42 42 43 43 43 42 40 39 38 36 35 34 32 31 30 29 28 27 26 25 27 28 30 29 28 28 29 30 29 28 27 28 31 33 33 35 38 41 40 35 33 31 28
9 10 10 10 10 10 10 9 9 9 9 10 10 10 11 11 12 12 13 13 14 15 15 16 17 18 19 20 20 21 23 24 24 25 26 27 28 28 30 34 38 41 43 44 44 44 45 46 44 42 40 39 38 37 37 36 34 33 32 31 30 28 27 27 28 30 31 29 28 29 30 30 29 28 29 31 33 35 37 41 43 41 37 33 30
9 10 10 10 11 11 11 11 11 11 12 12 13 13 13 14 14 15 15 15 16 17 17 18 19 19 20 21 21 22 23 24 25 26 27 28 28 28 28 29 31 36 40 43 45 45 45 46 47 46 44 42 42 41 40 40 38 36 35 34 33 32 31 29 28 28 30 32 31 30 29 29 30 29 29 30 32 34 37 40 44 46 43 40 38
8 9 10 10 11 11 11 12 12 13 14 15 16 16 17 18 18 19 19 20 20 21 22 22 23 23 24 24 24 24 25 25 26 27 28 29 29 29 30 29 28 30 34 38 43 45 43 43 45 47 47 46 46 45 44 43 42 39 37 36 35 35 33 32 31 30 29 30 32 33 33 31 30 30 30 30 30 32 36 39 42 46 48 47 46
8 8 9 10 11 12 12 13 14 15 16 16 17 18 18 19 19 20 21 21 22 23 24 25 26 26 27 27 28 28 28 29 29 30 30 31 32 31 31 31 30 31 32 34 42 46 44 43 44 45 47 47 48 49 48 46 44 42 41 40 38 37 36 35 33 32 31 30 30 32 34 35 33 31 31 31 30 30 33 38 41 44 48 50 50
7 8 9 10 11 12 13 14 15 16 16 17 17 18 18 19 20 20 21 21 22 23 23 25 26 26 27 28 29 30 30 31 32 33 34 34 35 35 34 34 33 33 34 34 40 48 46 44 45 45 45 46 47 49 50 50 47 45 44 43 41 39 38 37 35 34 34 33 31 31 32 35 37 36 33 32 31 30 31 34 39 42 45 49 50
7 8 9 10 11 12 13 14 15 16 17 17 18 19 19 20 20 21 22 22 23 23 24 25 26 27 27 28 29 29 30 31 32 33 35 36 37 38 38 39 38 37 37 35 41 51 51 47 48 48 46 46 46 46 49 50 50 49 47 45 44 42 41 40 38 37 36 35 34 33 31 32 34 38 38 36 34 32 31 32 36 40 43 45 49
8 9 10 11 12 13 14 15 16 17 18 18 19 20 20 21 22 23 23 24 24 25 25 26 27 27 29 29 30 30 31 31 32 33 34 35 37 38 39 41 41 41 42 41 43 51 55 52 51 52 49 48 48 46 46 48 49 49 50 50 48 46 44 43 41 40 39 37 36 35 34 32 32 34 38 40 38 36 34 32 33 37 41 44 46
10 11 12 13 14 15 16 17 18 19 19 20 21 21 22 23 23 24 25 25 26 27 27 28 29 29 30 31 32 33 33 33 34 34 35 36 36 38 38 39 41 42 43 44 45 50 56 56 55 56 54 50 50 50 48 49 49 49 50 52 51 51 49 46 44 42 41 40 38 37 35 34 33 32 34 37 40 41 39 36 33 34 38 42 44
12 14 15 16 17 18 18 19 20 21 22 22 23 23 24 25 25 26 26 27 28 29 29 30 31 32 33 33 34 35 35 36 37 37 38 38 39 39 40 40 42 43 43 44 46 48 54 57 57 58 58 55 54 54 53 52 52 51 51 51 52 53 53 51 48 45 42 41 40 39 38 36 35 34 33 34 37 41 42 41 38 35 35 38 41
15 17 18 19 20 21 21 22 23 24 24 25 26 26 27 28 29 29 29 30 30 31 32 33 34 35 35 36 36 37 37 38 39 39 40 41 42 42 43 44 44 45 45 44 45 46 50 55 57 57 57 57 56 56 56 54 54 54 54 53 52 53 54 54 52 50 45 42 40 39 39 38 37 35 34 34 34 37 41 44 43 41 37 36 37
18 19 21 22 23 24 24 25 26 27 27 28 28 29 29 30 31 32 32 33 34 34 35 36 37 38 38 38 38 38 39 40 40 41 41 42 43 44 45 46 46 46 47 46 46 45 46 51 55 56 56 56 55 56 56 54 54 55 56 56 55 54 54 53 53 52 49 45 42 40 40 39 38 37 36 35 34 35 38 41 45 45 43 40 38
20 22 23 24 25 25 26 27 27 28 28 29 29 30 31 31 32 33 34 35 36 36 37 38 39 40 40 40 40 40 40 41 42 43 43 44 45 46 46 47 47 47 48 48 46 45 46 48 52 54 54 53 52 53 52 49 48 52 55 57 57 56 54 54 53 52 50 48 45 42 40 39 39 38 37 36 36 35 36 38 42 45 46 45 43
21 23 24 26 27 27 28 28 28 29 29 29 30 31 32 33 34 35 35 36 37 38 38 39 40 40 40 40 41 41 41 42 43 44 45 45 46 47 46 46 46 45 46 46 45 43 44 46 50 52 52 52 49 47 47 44 43 47 49 50 53 56 55 53 53 52 50 49 48 46 43 40 39 39 38 38 37 36 36 37 38 42 46 47 47
22 24 26 28 29 30 30 30 30 30 30 30 31 32 33 34 35 36 37 37 38 39 39 40 40 40 41 41 41 42 42 43 44 44 45 45 45 45 44 42 41 41 40 41 40 39 38 40 45 47 47 46 42 37 36 34 34 40 40 37 41 51 54 53 53 53 50 48 48 47 45 42 40 39 39 39 39 38 37 37 37 39 42 45 47
23 25 27 29 31 32 33 32 31 31 31 31 32 33 35 36 36 37 37 38 39 40 40 40 40 40 40 41 42 42 43 43 44 43 43 42 41 42 41 38 37 37 37 37 37 37 36 35 39 39 37 36 32 26 25 24 24 29 30 28 32 42 46 47 50 52 50 47 47 47 46 43 40 38 38 39 40 39 37 37 37 37 39 42 44
24 26 28 30 32 34 34 34 33 33 32 33 33 34 35 36 37 37 38 38 39 40 41 41 41 41 41 41 42 43 44 44 43 43 43 41 39 37 36 34 33 33 33 34 33 33 33 34 37 35 33 34 30 25 25 25 22 23 24 24 27 31 33 35 41 47 45 39 38 41 43 39 35 34 36 37 38 37 36 37 37 36 37 39 41
25 27 28 31 33 35 36 36 35 34 33 33 34 35 36 36 36 37 38 39 39 40 40 40 41 41 41 42 43 44 44 44 44 43 42 40 38 35 34 31 29 28 28 29 30 29 28 31 34 33 32 34 32 28 26 26 25 26 28 28 30 30 28 28 32 38 35 27 27 34 40 39 36 36 38 37 36 36 35 36 36 35 35 35 37
26 28 29 32 34 36 36 36 35 34 34 34 34 35 35 35 35 36 37 38 39 39 39 40 40 41 42 43 44 44 44 44 43 43 41 39 36 34 33 30 28 26 24 24 25 27 27 28 32 33 30 31 31 28 25 24 25 27 28 31 34 36 36 36 36 38 34 27 27 34 38 39 36 37 41 41 39 38 37 36 36 35 34 34 35
28 29 31 33 35 36 36 36 35 34 33 34 34 35 35 35 35 35 36 37 37 38 38 39 40 41 42 43 44 45 44 43 42 41 40 38 36 34 32 30 29 27 25 23 23 25 27 29 33 35 31 29 31 29 25 24 26 29 30 31 32 32 36 42 45 48 45 37 33 37 41 40 33 34 43 46 42 40 39 38 37 36 35 35 34
29 30 32 34 35 36 36 36 35 34 33 34 34 34 34 34 34 35 36 37 37 37 38 39 40 41 42 43 44 44 44 42 41 39 38 36 34 33 32 30 30 29 28 28 27 26 27 28 32 35 32 30 31 31 28 27 29 32 33 34 34 32 34 39 42 46 48 42 35 36 45 50 41 34 42 50 48 45 43 41 39 37 36 36 35
30 31 33 35 36 36 37 36 35 34 33 33 33 34 34 34 34 35 36 36 37 38 39 39 40 41 42 43 43 43 43 42 39 36 35 33 31 31 31 32 33 34 33 33 30 28 29 29 30 33 34 34 34 32 31 30 31 33 34 35 35 36 37 39 40 41 41 36 31 30 42 54 49 38 42 51 51 46 45 44 43 40 38 37 37
31 32 34 36 36 37 37 36 34 34 34 33 33 33 33 33 34 35 36 37 38 39 39 40 41 41 42 42 42 42 42 40 37 33 31 30 29 31 34 35 37 37 37 33 30 29 30 31 32 34 35 34 34 33 32 31 32 33 34 35 35 35 37 39 39 38 36 31 28 27 33 46 47 40 41 47 44 39 39 43 45 44 42 40 39
32 33 35 36 37 37 37 35 34 34 34 33 32 33 33 33 34 35 36 37 38 39 39 40 41 41 41 40 40 40 41 39 35 32 30 28 30 33 36 37 37 37 37 34 33 33 33 33 33 35 35 34 34 34 33 32 32 32 34 35 33 32 36 40 42 43 40 36 33 31 35 43 43 35 34 39 38 34 35 39 42 43 43 42 40
33 34 35 36 37 37 35 34 34 34 34 33 32 32 32 32 33 34 35 37 37 38 39 40 40 40 40 39 38 38 39 38 35 32 28 27 32 34 35 37 38 38 38 37 38 39 39 38 38 38 37 36 35 35 34 33 32 30 32 35 34 32 35 38 39 42 45 42 33 29 37 48 47 38 35 38 41 41 40 41 41 41 41 42 40
34 35 36 36 37 36 34 33 34 34 34 33 32 32 32 32 32 33 35 36 37 38 38 39 39 39 39 39 37 36 37 36 34 30 25 25 30 32 33 37 41 42 41 40 41 42 43 43 42 41 39 37 35 35 34 34 33 31 31 34 35 35 37 40 39 39 43 40 25 16 27 41 43 40 35 34 39 44 41 38 38 37 36 37 38
Wind_Direction
257 265 266 265 277 266 252 249 248 251 251 255 270 279 286 297 298 304 310 302 296 298 299 296 287 277 265 257 255 255 257 261 265 268 271 271 270 271 272 276 282 291 303 313 321 329 337 343 342 338 339 337 325 334 338 321 332 337 322 325 327 334 333 327 331 337 342 332 304 289 282 277 276 265 253 250 256 256 255 254 251 251 251 247 247
257 263 262 257 266 264 257 260 256 246 247 260 267 266 278 297 300 301 300 292 293 294 296 301 291 281 270 261 256 254 255 258 261 264 267 270 271 272 272 273 276 282 290 298 307 314 322 329 334 333 329 326 316 317 324 312 309 311 312 303 313 338 325 313 324 330 342 344 322 305 292 283 280 276 268 252 253 257 259 256 247 242 243 244 246
253 259 260 258 259 258 261 271 262 241 242 261 265 262 272 293 303 297 287 286 293 293 293 308 301 288 278 268 259 255 254 255 257 260 263 266 269 271 272 273 273 276 281 286 293 299 308 312 319 330 328 322 316 313 314 309 299 292 300 296 310 327 294 297 313 317 328 338 333 323 307 296 281 271 276 261 256 255 256 258 249 238 236 240 239
242 254 258 260 257 254 254 256 253 241 246 266 273 269 268 284 299 290 285 289 293 285 280 303 307 297 288 278 270 262 258 256 257 260 263 265 267 270 271 271 272 273 275 278 281 286 294 299 304 312 319 321 321 319 315 308 303 292 294 300 319 318 291 296 305 308 319 325 329 331 322 314 297 277 273 265 265 260 253 258 254 240 236 238 235
216 233 237 241 244 241 233 227 239 245 253 271 280 277 271 279 287 281 292 307 301 287 284 295 301 300 293 285 280 273 267 263 261 261 263 264 266 268 271 272 273 274 274 276 277 280 284 288 294 298 301 306 312 316 312 306 304 297 292 292 295 294 293 297 298 304 313 313 315 321 318 315 313 306 294 281 277 269 258 258 259 249 235 234 235
230 238 243 242 230 220 225 229 233 236 246 260 261 262 264 268 275 277 298 312 306 296 295 295 293 293 289 284 281 277 273 270 266 263 262 262 264 266 268 270 272 274 275 276 278 280 281 282 285 289 292 296 301 304 303 301 300 298 295 289 268 267 289 296 295 300 301 301 306 311 313 310 310 313 310 303 293 284 276 266 263 260 248 236 235
256 254 249 241 221 213 229 235 230 231 232 236 245 256 258 257 262 272 286 292 287 284 289 294 296 298 296 291 284 278 274 272 270 267 264 262 262 262 264 266 269 271 272 274 277 279 281 282 283 285 287 291 295 296 296 297 296 296 296 295 277 262 282 288 287 292 294 297 302 303 305 302 299 307 312 309 300 290 287 283 269 262 264 253 238
281 268 255 243 228 231 246 239 224 237 237 229 240 253 256 257 254 257 266 273 275 279 285 293 300 303 303 299 295 290 284 278 274 270 267 265 263 262 262 264 265 267 268 270 272 273 276 279 281 283 286 288 290 291 292 293 294 296 294 297 291 274 272 275 274 281 286 286 285 289 294 292 294 303 309 307 300 292 290 292 281 264 267 267 250
292 294 280 273 254 244 257 255 234 248 252 236 232 247 261 264 259 258 258 257 261 269 277 284 290 293 296 297 296 295 292 287 282 278 275 271 269 267 265 264 264 264 266 267 268 268 269 273 276 278 281 283 285 287 288 290 291 294 295 297 294 278 264 263 267 267 270 274 278 283 287 288 293 299 303 302 295 292 293 292 286 273 268 265 260
294 321 326 314 311 279 272 276 259 259 265 253 243 257 269 272 272 275 274 267 268 271 275 282 287 289 290 292 293 294 294 292 288 284 282 280 277 275 272 269 267 266 266 266 266 267 267 268 269 271 274 278 279 281 284 286 289 291 293 294 291 283 270 267 274 273 270 274 279 281 282 287 292 294 297 298 293 292 293 292 285 277 272 264 261
299 318 324 316 313 309 302 301 295 287 276 259 254 260 268 273 275 279 283 281 280 281 283 286 288 291 294 296 296 296 296 296 294 290 286 284 281 279 278 276 274 272 269 267 267 267 267 267 267 268 270 273 276 278 280 282 284 287 289 290 289 286 278 272 277 282 281 280 278 278 279 282 286 289 292 294 294 293 291 290 286 276 270 266 261
295 302 302 294 291 295 299 305 309 311 298 272 268 270 270 273 274 278 280 279 279 280 284 288 292 296 298 300 301 300 299 298 297 294 290 287 283 280 279 279 279 278 275 273 271 269 268 268 268 268 269 270 272 274 277 278 280 282 284 286 286 285 282 276 271 273 280 283 280 277 278 281 284 289 294 295 296 295 286 279 276 269 265 267 264
286 293 290 284 285 288 293 300 303 303 302 299 294 288 284 281 278 278 278 277 281 285 288 293 298 300 300 299 300 300 299 298 295 292 289 287 285 283 281 280 279 278 279 278 276 273 271 270 269 269 269 269 270 270 271 273 274 277 279 280 282 283 283 279 273 265 266 277 283 283 282 284 287 292 297 297 299 296 283 265 262 264 265 263 259
355 341 330 313 302 298 297 300 303 304 303 303 301 297 294 292 289 285 284 284 287 289 292 296 300 303 304 304 305 304 302 299 295 290 289 287 285 284 283 283 282 279 279 280 278 275 273 272 272 272 271 270 270 269 269 269 269 270 271 274 277 279 281 281 279 272 262 264 276 285 286 286 288 293 296 295 294 291 280 268 264 260 261 262 258
36 26 16 6 351 338 330 326 322 317 310 305 302 299 297 297 296 293 292 292 291 292 296 298 300 304 308 312 314 316 317 312 303 300 299 293 288 287 287 286 285 282 281 281 279 276 275 275 276 274 273 273 272 271 269 268 267 266 266 267 269 272 275 277 278 277 272 262 258 270 282 285 283 284 290 290 283 278 273 272 270 262 260 261 260
41 34 25 18 11 4 360 356 351 345 337 329 322 318 315 311 309 307 304 301 298 299 302 303 306 311 318 322 321 323 327 321 315 315 312 302 295 295 293 288 285 283 281 281 281 279 277 278 279 278 277 276 275 273 271 269 268 266 265 265 265 266 268 270 272 273 275 270 259 257 266 275 276 275 281 284 275 268 274 278 270 263 263 261 261
39 32 25 19 13 9 4 360 357 355 351 349 349 349 346 342 339 336 332 329 325 321 317 317 319 321 326 331 330 328 324 320 321 318 311 308 307 302 300 297 294 291 288 286 283 280 279 277 277 277 277 277 276 275 273 272 270 269 267 266 265 265 265 265 267 268 270 271 268 260 256 261 268 273 272 270 268 264 278 289 276 259 263 263 263
33 28 23 20 16 15 13 10 8 6 6 4 2 2 1 360 359 357 354 353 351 344 336 334 333 329 329 332 332 324 317 319 324 317 308 309 311 310 311 310 307 305 302 298 293 288 285 282 280 277 276 275 275 274 273 271 270 269 269 269 268 268 267 266 265 265 266 267 268 266 260 255 256 264 266 263 261 258 275 290 278 256 262 262 262
30 27 23 21 20 19 18 17 16 17 17 14 13 14 14 14 14 13 13 9 4 2 3 3 359 354 349 342 327 314 311 314 318 317 313 310 308 312 315 317 317 314 311 310 307 302 296 291 287 283 279 277 275 274 273 271 270 269 269 269 270 271 271 270 268 266 265 264 264 265 264 259 252 253 260 264 261 256 273 287 276 256 261 261 261
29 26 24 23 20 19 19 18 16 18 18 16 19 23 22 22 21 20 19 17 14 14 14 15 16 16 16 13 1 347 335 328 324 323 320 313 312 316 317 319 322 321 322 324 322 318 312 307 302 296 290 285 281 278 276 273 271 270 269 268 269 271 271 272 272 270 268 265 263 262 263 262 256 248 250 257 257 255 266 278 273 263 262 260 258
26 23 21 19 17 17 17 14 13 15 16 17 21 22 21 21 21 21 21 20 20 21 18 18 20 20 19 17 16 13 8 4 355 345 338 328 326 327 323 320 320 321 328 331 328 327 325 321 319 314 307 300 293 287 282 278 275 272 270 269 268 270 270 270 271 272 272 269 265 262 260 260 259 253 247 247 249 251 255 262 267 270 272 270 261
23 22 17 15 14 12 9 7 10 13 13 14 15 14 15 18 19 21 21 21 22 23 21 21 20 18 17 14 11 11 9 7 3 355 350 341 333 333 332 329 322 318 324 329 326 326 326 325 326 325 321 317 311 303 295 288 283 278 274 272 270 270 270 269 268 268 270 271 270 265 260 257 256 255 250 245 243 246 251 255 257 260 266 269 264
21 17 12 13 10 7 5 5 6 6 5 6 7 8 11 13 15 15 14 15 17 18 18 17 16 14 13 11 8 7 5 2 358 352 348 340 331 330 333 332 324 319 321 323 322 322 322 323 326 326 325 325 324 320 313 305 296 289 282 277 273 272 270 269 268 266 265 267 269 269 265 259 255 254 252 248 243 242 246 253 254 250 250 259 266
16 9 6 7 5 3 3 2 0 359 0 3 3 4 6 5 5 4 5 6 6 8 9 7 8 9 8 7 5 2 358 355 351 346 341 335 328 325 327 328 323 322 323 321 319 318 318 320 324 324 325 326 326 325 323 319 314 306 297 287 279 275 273 271 270 268 265 263 263 266 266 262 257 253 251 249 246 242 241 245 249 251 252 255 264
3 358 357 359 359 357 355 354 355 356 359 0 360 359 358 356 355 355 355 355 355 358 359 358 359 360 360 360 358 355 351 348 345 342 337 332 327 323 323 323 319 320 323 322 319 317 315 318 321 321 322 324 324 323 322 322 321 319 313 303 293 285 279 275 272 270 267 265 262 262 263 263 259 254 250 248 247 243 240 239 241 246 252 255 260
354 352 354 357 356 354 354 355 356 356 356 353 351 349 347 345 344 344 344 344 346 347 348 348 349 348 348 347 346 345 343 342 340 337 334 331 328 324 322 321 319 319 320 320 320 318 316 317 318 318 319 319 320 320 319 319 318 318 317 313 308 301 292 284 278 274 271 267 264 261 260 261 260 256 251 247 246 244 240 237 237 239 246 251 252
345 347 351 353 352 352 353 353 352 351 350 347 345 344 342 341 340 339 338 338 337 336 336 335 335 335 334 334 335 336 335 335 334 333 332 329 327 324 321 319 318 318 318 318 317 316 315 316 316 316 317 317 316 316 315 315 314 314 314 312 311 309 305 298 288 280 276 271 267 263 259 259 260 259 255 250 245 243 241 238 236 236 240 241 241
336 339 341 341 340 340 339 339 339 337 335 333 332 331 330 330 329 329 328 328 328 328 328 327 326 326 326 326 327 327 328 328 328 328 327 326 324 323 320 317 314 313 314 314 313 313 313 315 315 314 316 315 313 312 311 310 310 310 310 309 308 307 306 304 299 290 282 275 271 266 261 258 258 259 258 255 249 244 242 240 237 236 236 235 234
325 325 325 323 321 320 319 319 318 316 315 314 314 314 315 315 316 317 317 318 319 320 321 321 321 321 321 322 322 323 323 323 323 323 323 322 322 320 318 316 312 308 307 307 308 308 309 312 312 310 312 312 310 309 308 306 306 306 305 304 303 303 302 301 300 298 292 284 277 271 266 261 258 257 257 257 254 248 242 241 240 238 237 237 236
305 305 305 303 302 302 302 303 303 304 304 304 305 305 306 307 308 309 310 311 312 313 314 315 315 316 316 317 318 319 319 319 319 320 320 320 319 318 317 315 312 308 304 301 301 304 306 307 307 306 307 308 307 307 305 304 303 303 301 300 299 298 298 297 297 297 296 292 286 277 270 265 261 259 256 255 255 252 245 241 241 240 239 240 241
294 296 297 298 298 299 299 300 300 301 301 300 300 301 301 301 302 303 304 305 306 307 309 310 311 311 312 312 313 313 314 314 315 316 317 317 316 316 315 313 311 308 305 301 298 300 303 304 304 303 303 303 303 302 302 303 303 302 300 298 297 295 294 293 293 293 293 292 291 287 278 270 264 261 259 256 254 254 250 243 240 241 241 241 242
302 303 303 303 302 302 302 301 300 300 299 299 298 298 299 299 300 301 302 303 304 305 306 308 309 308 308 308 308 308 308 308 310 311 312 313 313 314 313 313 311 309 307 303 297 299 302 303 302 302 301 300 298 297 298 300 301 301 300 298 296 295 293 291 290 289 289 289 289 289 287 280 270 264 261 259 256 254 252 247 242 240 241 242 243
316 314 313 312 310 309 309 307 306 304 303 302 301 301 301 302 302 303 304 305 306 307 308 308 308 308 308 307 306 305 304 304 305 306 307 308 308 310 310 310 310 309 308 306 302 301 303 303 303 302 301 300 297 296 296 295 296 298 299 298 297 295 293 291 289 287 287 287 287 287 287 286 281 272 263 260 259 257 254 251 246 242 240 241 243
324 322 320 319 317 316 315 313 312 310 308 307 306 306 306 305 305 306 307 307 308 309 310 310 310 310 308 308 307 306 304 304 304 304 305 306 306 306 307 307 306 306 306 305 303 302 302 303 303 302 301 300 298 296 295 293 292 293 294 294 295 295 294 292 290 289 287 285 285 285 285 284 284 280 272 263 259 258 257 255 251 246 242 241 242
329 329 327 324 322 320 319 317 315 313 312 311 310 311 311 310 310 310 310 310 311 311 312 312 312 311 310 310 308 308 307 306 306 307 307 307 307 307 306 305 304 303 302 301 300 299 300 300 300 300 300 300 298 296 295 293 292 291 290 290 291 293 293 293 292 290 288 287 285 284 283 282 280 280 278 272 263 258 257 257 256 251 246 243 242
334 334 331 329 327 325 323 321 319 317 316 315 315 315 315 314 314 313 313 313 314 314 314 314 314 314 313 312 311 310 309 308 308 309 309 310 310 309 308 307 305 303 302 300 298 297 296 296 297 297 297 297 297 296 295 294 292 290 289 288 287 288 289 291 292 290 289 288 285 282 281 279 278 277 276 275 271 264 257 255 255 255 253 248 245
336 336 334 331 329 326 324 322 320 319 318 317 316 316 315 315 315 314 314 314 314 315 316 316 316 316 315 314 313 313 312 311 311 312 312 312 311 311 309 308 307 305 303 301 299 297 295 294 295 295 294 294 295 295 294 294 293 291 289 288 287 286 286 286 288 289 290 288 284 281 279 277 276 275 274 272 271 269 263 256 253 254 255 254 250
336 336 335 333 330 326 323 321 319 318 317 317 316 315 315 314 314 314 313 314 314 315 316 316 316 316 316 315 314 314 314 314 314 314 314 313 312 311 310 309 308 307 306 304 302 300 297 295 294 294 293 293 293 293 293 294 294 292 289 288 287 287 286 285 284 285 288 288 285 282 279 276 274 272 271 270 268 268 267 263 257 253 252 254 254
332 334 335 333 331 327 323 320 319 317 317 316 316 315 315 314 314 313 313 313 313 314 315 315 315 315 315 314 314 314 315 315 315 316 315 315 314 313 312 311 310 309 306 304 303 301 298 297 295 295 295 295 295 295 295 297 296 292 290 290 290 288 287 287 285 283 284 286 286 284 280 276 274 271 270 269 267 266 266 266 264 257 253 252 253
325 327 329 331 330 328 325 322 319 318 317 317 317 316 315 315 314 313 313 313 313 313 314 314 314 314 314 314 314 314 315 316 316 316 316 315 314 313 312 311 308 305 302 300 298 295 294 295 295 295 296 297 297 298 300 300 296 294 293 292 291 289 288 288 287 285 284 284 285 285 283 280 276 272 270 268 266 265 265 265 265 263 258 254 252
316 319 322 326 328 328 326 323 321 319 318 318 318 316 315 315 314 313 313 312 313 313 313 313 313 313 313 313 314 314 315 316 316 316 315 314 313 312 310 308 304 301 298 295 292 290 289 289 290 291 293 294 295 299 301 299 297 298 298 293 289 290 290 290 289 288 287 287 285 284 284 284 283 277 271 268 266 264 264 263 263 263 262 259 255
309 313 317 321 325 326 326 324 321 319 319 318 318 317 316 316 315 314 313 313 313 313 313 313 313 313 313 314 314 314 315 316 316 315 314 314 313 311 308 305 301 298 295 294 293 292 291 289 288 289 289 288 290 295 296 296 298 296 295 294 294 295 294 293 290 289 289 291 290 286 284 285 287 282 273 268 265 263 261 260 260 261 262 262 259
305 309 313 318 322 324 324 323 321 319 318 318 318 317 316 316 314 314 313 313 314 314 313 314 314 314 315 314 315 315 315 316 316 315 315 315 313 310 306 303 299 295 292 291 292 293 293 290 289 289 289 289 291 293 292 294 294 289 284 285 286 288 291 294 294 291 291 295 297 292 288 285 286 284 278 271 266 263 260 259 258 259 261 261 260
302 306 311 316 320 322 322 321 320 318 317 317 317 316 315 314 314 313 314 314 314 315 314 314 315 315 315 315 315 315 316 317 318 317 317 315 313 309 305 302 298 294 290 287 288 289 289 289 289 288 288 290 293 295 294 295 297 295 291 286 281 277 278 281 284 284 286 295 300 294 289 287 285 284 280 275 271 267 263 260 258 258 259 260 260
300 305 310 315 319 320 320 319 317 316 316 317 316 315 314 314 314 314 314 315 315 315 315 315 316 315 315 315 315 316 318 319 319 319 318 316 314 311 307 304 300 298 297 295 293 290 287 286 286 286 288 290 290 292 293 295 297 297 297 297 294 288 282 279 278 276 276 282 289 290 288 285 283 281 278 276 276 275 270 264 260 259 258 259 259
299 305 310 314 317 318 318 317 316 315 316 316 315 314 313 313 314 314 315 315 315 315 315 315 315 315 316 317 317 319 320 320 321 322 321 319 316 312 308 305 304 305 305 305 304 301 297 291 287 291 297 298 297 299 300 300 301 300 299 300 300 298 293 288 283 278 276 278 281 284 283 280 278 279 277 277 278 279 277 274 269 264 260 258 258
299 305 310 313 315 316 316 316 314 314 315 315 314 313 313 314 314 315 315 315 315 315 315 316 316 317 318 318 319 320 320 320 323 324 323 320 316 311 309 308 309 309 308 306 307 308 306 301 294 295 298 299 300 302 302 301 301 299 296 295 294 293 293 291 287 283 282 283 283 279 276 277 278 276 276 279 280 279 278 278 275 271 264 259 257
300 306 310 312 314 314 315 314 312 312 313 313 313 312 313 314 315 315 315 315 315 314 315 316 316 317 318 319 319 319 318 320 322 324 324 322 314 309 307 307 307 305 303 305 309 308 304 299 293 290 290 291 293 294 293 293 293 292 292 291 290 291 291 289 287 285 284 285 283 277 276 282 284 279 277 281 281 278 278 278 277 274 269 262 258
301 306 309 311 312 312 313 312 310 311 312 312 312 312 313 315 315 314 314 314 314 314 315 316 316 317 318 319 318 317 316 319 323 325 325 317 307 303 303 302 301 300 301 306 309 305 302 300 295 293 292 293 294 293 291 289 287 288 289 289 288 289 289 287 286 286 286 283 278 275 275 279 283 281 279 281 280 277 277 278 277 275 272 268 262
302 306 308 309 310 311 310 309 309 310 310 311 311 311 313 314 314 313 313 313 313 314 315 316 316 316 316 316 316 315 317 321 324 326 322 308 298 298 298 298 298 299 301 306 307 304 302 301 299 298 297 296 296 295 293 291 290 287 282 281 284 284 282 282 284 287 289 287 283 279 271 269 272 278 280 281 282 280 279 280 278 276 273 271 267
303 306 307 308 309 308 307 307 308 308 308 309 310 311 312 312 312 313 313 313 314 315 315 314 314 314 315 315 316 316 317 320 322 323 319 305 297 298 299 298 299 300 302 304 304 302 301 300 300 300 300 299 298 296 294 293 293 288 279 278 282 282 280 281 283 284 286 287 289 290 276 270 271 275 275 277 281 282 281 280 278 275 274 274 272